| time (UTC) | temp F | wind direction | speed knots | gust knots | rain 1hr in | rain 24hr in | rain mn in | humidity % | barometer mb |
| 20260906231518 | 97 | 76 | 7.0 | 13.0 | 0.00 | 0.00 | 0.00 | 39 | 1008.4 |
| 20260906230017 | 97 | 106 | 4.3 | 10.4 | 0.00 | 0.00 | 0.00 | 40 | 1008.4 |
| 20260906224520 | 97 | 88 | 7.8 | 14.8 | 0.00 | 0.00 | 0.00 | 39 | 1008.4 |
| 20260906223018 | 97 | 109 | 7.8 | 14.8 | 0.00 | 0.00 | 0.00 | 40 | 1008.4 |
| 20260906221515 | 97 | 97 | 6.1 | 10.4 | 0.00 | 0.00 | 0.00 | 41 | 1008.6 |
| 20260906220016 | 97 | 87 | 7.0 | 10.4 | 0.00 | 0.00 | 0.00 | 41 | 1008.6 |
| 20260906214519 | 98 | 140 | 4.3 | 13.0 | 0.00 | 0.00 | 0.00 | 40 | 1008.8 |
| 20260906213013 | 98 | 86 | 7.8 | 10.4 | 0.00 | 0.00 | 0.00 | 41 | 1009.0 |
| 20260906211510 | 97 | 61 | 7.0 | 13.9 | 0.00 | 0.00 | 0.00 | 41 | 1009.1 |
| 20260906210008 | 98 | 76 | 6.1 | 10.4 | 0.00 | 0.00 | 0.00 | 40 | 1009.3 |
| 20260906204508 | 98 | 44 | 3.5 | 12.2 | 0.00 | 0.00 | 0.00 | 41 | 1009.4 |
| 20260906203014 | 97 | 64 | 3.5 | 13.0 | 0.00 | 0.00 | 0.00 | 41 | 1009.6 |
| 20260906201505 | 95 | 64 | 4.3 | 12.2 | 0.00 | 0.00 | 0.00 | 44 | 1009.7 |
| 20260906200011 | 97 | 102 | 3.5 | 9.6 | 0.00 | 0.00 | 0.00 | 42 | 1009.9 |
| 20260906194502 | 96 | 94 | 6.1 | 8.7 | 0.00 | 0.00 | 0.00 | 45 | 1010.0 |
| 20260906193002 | 96 | 88 | 6.1 | 9.6 | 0.00 | 0.00 | 0.00 | 44 | 1010.2 |
| 20260906191601 | 96 | 156 | 6.1 | 12.2 | 0.00 | 0.00 | 0.00 | 45 | 1010.3 |
| 20260906190111 | 96 | 63 | 5.2 | 9.6 | 0.00 | 0.00 | 0.00 | 45 | 1010.4 |
| 20260906184559 | 95 | 86 | 7.8 | 12.2 | 0.00 | 0.00 | 0.00 | 46 | 1010.6 |
| 20260906183108 | 95 | 69 | 4.3 | 10.4 | 0.00 | 0.00 | 0.00 | 48 | 1010.8 |
| 20260906181554 | 95 | 86 | 6.1 | 13.9 | 0.00 | 0.00 | 0.00 | 47 | 1011.0 |
| 20260906180110 | 94 | 77 | 1.7 | 13.9 | 0.00 | 0.00 | 0.00 | 51 | 1011.2 |
| 20260906174552 | 93 | 87 | 5.2 | 10.4 | 0.00 | 0.00 | 0.00 | 50 | 1011.4 |
| 20260906173050 | 93 | 39 | 7.0 | 11.3 | 0.00 | 0.00 | 0.00 | 52 | 1011.7 |
| 20260906171548 | 93 | 92 | 4.3 | 11.3 | 0.00 | 0.00 | 0.00 | 52 | 1012.1 |
| 20260906170111 | 92 | 101 | 4.3 | 9.6 | 0.00 | 0.00 | 0.00 | 53 | 1012.3 |
| 20260906164544 | 91 | 150 | 6.1 | 9.6 | 0.00 | 0.00 | 0.00 | 53 | 1012.3 |
| 20260906163044 | 91 | 128 | 5.2 | 8.7 | 0.00 | 0.00 | 0.00 | 53 | 1012.4 |
| 20260906161539 | 90 | 70 | 1.7 | 8.7 | 0.00 | 0.00 | 0.00 | 58 | 1012.4 |
| 20260906160037 | 90 | 82 | 3.5 | 7.8 | 0.00 | 0.00 | 0.00 | 61 | 1012.4 |
| 20260906154534 | 89 | 91 | 6.1 | 7.8 | 0.00 | 0.00 | 0.00 | 62 | 1012.3 |
| 20260906153034 | 88 | 95 | 4.3 | 7.8 | 0.00 | 0.00 | 0.00 | 63 | 1012.3 |
| 20260906151529 | 87 | 141 | 1.7 | 5.2 | 0.00 | 0.00 | 0.00 | 66 | 1012.3 |
| 20260906150024 | 86 | 46 | 2.6 | 5.2 | 0.00 | 0.00 | 0.00 | 69 | 1012.1 |
| 20260906144532 | 85 | 90 | 0.9 | 4.3 | 0.00 | 0.00 | 0.00 | 70 | 1012.1 |
| 20260906143019 | 84 | 72 | 2.6 | 4.3 | 0.00 | 0.00 | 0.00 | 73 | 1012.1 |
| 20260906141515 | 82 | 122 | 1.7 | 5.2 | 0.00 | 0.00 | 0.00 | 75 | 1012.1 |
| 20260906140014 | 81 | 98 | 2.6 | 5.2 | 0.00 | 0.00 | 0.00 | 77 | 1012.2 |
| 20260906134522 | 80 | 94 | 3.5 | 6.1 | 0.00 | 0.00 | 0.00 | 79 | 1011.9 |
| 20260906133015 | 79 | 102 | 2.6 | 6.1 | 0.00 | 0.00 | 0.00 | 82 | 1012.0 |
| 20260906131511 | 78 | 86 | 3.5 | 6.1 | 0.00 | 0.00 | 0.00 | 83 | 1011.9 |
| 20260906130010 | 77 | 93 | 4.3 | 7.0 | 0.00 | 0.00 | 0.00 | 85 | 1011.9 |
| 20260906124513 | 76 | 86 | 3.5 | 6.1 | 0.00 | 0.00 | 0.00 | 86 | 1011.7 |
| 20260906123009 | 75 | 82 | 2.6 | 4.3 | 0.00 | 0.00 | 0.00 | 86 | 1011.7 |
| 20260906121508 | 75 | 82 | 1.7 | 4.3 | 0.00 | 0.00 | 0.00 | 86 | 1011.5 |
| 20260906120006 | 75 | 109 | 0.0 | 3.5 | 0.00 | 0.00 | 0.00 | 85 | 1011.3 |
| 20260906114504 | 75 | 109 | 1.7 | 3.5 | 0.00 | 0.00 | 0.00 | 86 | 1011.1 |
| 20260906113003 | 75 | 76 | 1.7 | 2.6 | 0.00 | 0.00 | 0.00 | 86 | 1011.1 |
| 20260906111503 | 75 | 75 | 0.9 | 2.6 | 0.00 | 0.00 | 0.00 | 85 | 1011.0 |
| 20260906110105 | 75 | 108 | 0.9 | 1.7 | 0.00 | 0.00 | 0.00 | 85 | 1010.9 |
| 20260906104557 | 75 | 95 | 0.9 | 2.6 | 0.00 | 0.00 | 0.00 | 85 | 1010.8 |
| 20260906103057 | 75 | 192 | 0.0 | 0.0 | 0.00 | 0.00 | 0.00 | 84 | 1010.5 |
| 20260906101555 | 76 | 192 | 0.0 | 0.0 | 0.00 | 0.00 | 0.00 | 83 | 1010.5 |
| 20260906100055 | 76 | 192 | 0.0 | 0.0 | 0.00 | 0.00 | 0.00 | 83 | 1010.5 |
| 20260906094603 | 77 | 192 | 0.0 | 0.0 | 0.00 | 0.00 | 0.00 | 82 | 1010.3 |
| 20260906093050 | 77 | 192 | 0.0 | 0.0 | 0.00 | 0.00 | 0.00 | 81 | 1010.2 |
| 20260906091601 | 77 | 192 | 0.0 | 2.6 | 0.00 | 0.00 | 0.00 | 81 | 1010.0 |
| 20260906090047 | 77 | 158 | 0.9 | 3.5 | 0.00 | 0.00 | 0.00 | 81 | 1009.9 |
| 20260906084545 | 78 | 182 | 0.0 | 1.7 | 0.00 | 0.00 | 0.00 | 80 | 1010.1 |
| 20260906083043 | 78 | 204 | 1.7 | 2.6 | 0.00 | 0.00 | 0.00 | 79 | 1010.0 |
| 20260906081544 | 79 | 182 | 0.9 | 5.2 | 0.00 | 0.00 | 0.00 | 78 | 1010.1 |
| 20260906080041 | 79 | 213 | 2.6 | 5.2 | 0.00 | 0.00 | 0.00 | 78 | 1010.0 |
| 20260906074546 | 79 | 180 | 1.7 | 5.2 | 0.00 | 0.00 | 0.00 | 77 | 1010.2 |
| 20260906073039 | 80 | 150 | 3.5 | 6.1 | 0.00 | 0.00 | 0.00 | 77 | 1010.2 |
| 20260906071534 | 80 | 151 | 3.5 | 6.1 | 0.00 | 0.00 | 0.00 | 76 | 1010.2 |
| 20260906070033 | 80 | 178 | 3.5 | 6.1 | 0.00 | 0.00 | 0.00 | 76 | 1010.4 |
| 20260906064531 | 81 | 165 | 2.6 | 5.2 | 0.00 | 0.00 | 0.00 | 75 | 1010.5 |
| 20260906063030 | 81 | 162 | 1.7 | 5.2 | 0.00 | 0.00 | 0.00 | 75 | 1010.7 |
| 20260906061528 | 81 | 160 | 0.9 | 4.3 | 0.00 | 0.00 | 0.00 | 74 | 1010.8 |
| 20260906060027 | 82 | 192 | 1.7 | 5.2 | 0.00 | 0.00 | 0.00 | 74 | 1010.7 |
| 20260906054538 | 81 | 172 | 1.7 | 5.2 | 0.00 | 0.00 | 0.00 | 74 | 1010.6 |
| 20260906053025 | 82 | 161 | 2.6 | 6.1 | 0.00 | 0.00 | 0.00 | 74 | 1010.6 |
| 20260906051526 | 82 | 132 | 1.7 | 5.2 | 0.00 | 0.00 | 0.00 | 73 | 1010.5 |
| 20260906050021 | 82 | 140 | 3.5 | 6.1 | 0.00 | 0.00 | 0.00 | 72 | 1010.7 |
| 20260906044522 | 83 | 135 | 3.5 | 7.0 | 0.00 | 0.00 | 0.00 | 71 | 1010.6 |
| 20260906043029 | 83 | 128 | 3.5 | 7.0 | 0.00 | 0.00 | 0.00 | 70 | 1010.4 |
| 20260906041519 | 83 | 175 | 4.3 | 9.6 | 0.00 | 0.00 | 0.00 | 70 | 1010.3 |
| 20260906040019 | 83 | 139 | 2.6 | 6.1 | 0.00 | 0.00 | 0.00 | 70 | 1010.4 |
| 20260906034519 | 84 | 126 | 2.6 | 7.0 | 0.00 | 0.00 | 0.00 | 69 | 1010.4 |
| 20260906033024 | 84 | 130 | 5.2 | 7.8 | 0.00 | 0.00 | 0.00 | 69 | 1010.5 |
| 20260906031518 | 85 | 126 | 4.3 | 10.4 | 0.00 | 0.00 | 0.00 | 68 | 1010.6 |
| 20260906030021 | 85 | 101 | 6.1 | 9.6 | 0.00 | 0.00 | 0.00 | 67 | 1010.5 |
| 20260906024516 | 86 | 127 | 7.0 | 11.3 | 0.00 | 0.00 | 0.00 | 66 | 1010.2 |
| 20260906023016 | 86 | 104 | 5.2 | 8.7 | 0.00 | 0.00 | 0.00 | 65 | 1010.0 |
| 20260906021516 | 87 | 115 | 4.3 | 8.7 | 0.00 | 0.00 | 0.00 | 63 | 1009.8 |
| 20260906020015 | 87 | 145 | 7.0 | 13.9 | 0.00 | 0.00 | 0.00 | 60 | 1009.5 |
| 20260906014515 | 88 | 119 | 7.0 | 16.5 | 0.00 | 0.00 | 0.00 | 57 | 1009.3 |
| 20260906013021 | 90 | 123 | 11.3 | 15.6 | 0.00 | 0.00 | 0.00 | 53 | 1009.1 |
| 20260906011513 | 91 | 142 | 2.6 | 5.2 | 0.00 | 0.00 | 0.00 | 48 | 1008.6 |
| 20260906010013 | 92 | 125 | 2.6 | 8.7 | 0.00 | 0.00 | 0.00 | 47 | 1008.6 |
| 20260906004513 | 93 | 105 | 4.3 | 13.0 | 0.00 | 0.00 | 0.00 | 46 | 1008.6 |
| 20260906003012 | 94 | 128 | 7.8 | 14.8 | 0.00 | 0.00 | 0.00 | 44 | 1008.6 |
| 20260906001517 | 95 | 98 | 4.3 | 7.0 | 0.00 | 0.00 | 0.00 | 42 | 1008.5 |
| 20260906000033 | 95 | 128 | 5.2 | 8.7 | 0.00 | 0.00 | 0.00 | 41 | 1008.4 |
| 20260905234511 | 96 | 112 | 7.8 | 12.2 | 0.00 | 0.00 | 0.00 | 40 | 1008.3 |
| 20260905233010 | 96 | 108 | 6.1 | 7.8 | 0.00 | 0.00 | 0.00 | 40 | 1008.2 |